Time,TemperatureF,DewpointF,PressureIn,WindDirection,WindDirectionDegrees,WindSpeedMPH,WindSpeedGustMPH,Humidity,HourlyPrecipIn,Conditions,Clouds,dailyrainin,SolarRadiationWatts/m^2,SoftwareType,DateUTC
2013-07-04 00:02:00,62.4,47.0,29.94,East,90,0.0,0.0,57,0.00,CLR,,0.00,0.0,WeatherDisplay:10.37,2013-07-03 22:02:00,
2013-07-04 00:07:00,62.2,46.8,29.94,East,90,0.0,0.0,57,0.00,CLR,,0.00,0.0,WeatherDisplay:10.37,2013-07-03 22:07:00,
2013-07-04 00:12:00,62.1,46.6,29.94,East,90,0.0,0.0,57,0.00,CLR,,0.00,0.0,WeatherDisplay:10.37,2013-07-03 22:12:00,
2013-07-04 00:19:00,61.7,47.2,29.94,East,90,0.0,0.0,59,0.00,CLR,,0.00,0.0,WeatherDisplay:10.37,2013-07-03 22:19:00,
2013-07-04 00:24:00,61.7,47.2,29.94,East,90,0.0,0.0,59,0.00,CLR,,0.00,0.0,WeatherDisplay:10.37,2013-07-03 22:24:00,
2013-07-04 00:30:00,61.3,47.3,29.97,North,0,1.6,1.6,60,0.00,CLR,,0.00,0.0,WeatherDisplay:10.37,2013-07-03 22:30:00,
2013-07-04 00:36:00,61.2,47.6,29.97,WNW,292,0.0,0.0,61,0.00,CLR,,0.00,0.0,WeatherDisplay:10.37,2013-07-03 22:36:00,
2013-07-04 00:43:00,61.2,47.6,29.97,WNW,292,1.2,0.0,61,0.00,CLR,,0.00,0.0,WeatherDisplay:10.37,2013-07-03 22:43:00,
2013-07-04 00:48:00,61.0,47.4,29.97,WNW,292,2.4,2.4,61,0.00,CLR,,0.00,0.0,WeatherDisplay:10.37,2013-07-03 22:48:00,
2013-07-04 00:54:00,61.0,47.9,29.97,WNW,292,2.3,2.3,62,0.00,CLR,,0.00,0.0,WeatherDisplay:10.37,2013-07-03 22:54:00,
2013-07-04 00:59:00,61.0,48.3,29.94,NW,315,1.6,1.6,63,0.00,CLR,,0.00,0.0,WeatherDisplay:10.37,2013-07-03 22:59:00,
2013-07-04 01:04:00,61.0,48.3,29.94,NNW,338,1.2,1.2,63,0.00,CLR,,0.00,0.0,WeatherDisplay:10.37,2013-07-03 23:04:00,
2013-07-04 01:09:00,61.0,48.7,29.94,WNW,292,2.3,2.3,64,0.00,CLR,,0.00,0.0,WeatherDisplay:10.37,2013-07-03 23:09:00,
2013-07-04 01:15:00,61.0,48.7,29.94,NNW,338,1.2,1.2,64,0.00,CLR,,0.00,0.0,WeatherDisplay:10.37,2013-07-03 23:15:00,
2013-07-04 01:21:00,61.0,48.7,29.94,NW,315,1.2,0.0,64,0.00,CLR,,0.00,0.0,WeatherDisplay:10.37,2013-07-03 23:21:00,
2013-07-04 01:26:00,61.0,48.7,29.97,NW,315,1.2,0.0,64,0.00,CLR,,0.00,0.0,WeatherDisplay:10.37,2013-07-03 23:26:00,
2013-07-04 01:32:00,60.8,48.5,29.97,NW,315,0.0,0.0,64,0.00,CLR,,0.00,0.0,WeatherDisplay:10.37,2013-07-03 23:32:00,
2013-07-04 01:37:00,60.8,48.1,29.97,NW,315,0.0,0.0,63,0.00,CLR,,0.00,0.0,WeatherDisplay:10.37,2013-07-03 23:37:00,
2013-07-04 01:42:00,60.4,47.8,29.97,NW,315,0.0,0.0,63,0.00,CLR,,0.00,0.0,WeatherDisplay:10.37,2013-07-03 23:42:00,
2013-07-04 01:47:00,60.4,47.8,29.97,NW,315,0.0,0.0,63,0.00,CLR,,0.00,0.0,WeatherDisplay:10.37,2013-07-03 23:47:00,
2013-07-04 01:53:00,60.3,47.6,29.97,NW,315,0.0,0.0,63,0.00,CLR,,0.00,0.0,WeatherDisplay:10.37,2013-07-03 23:53:00,
2013-07-04 01:58:00,60.1,47.4,29.97,NW,315,0.0,0.0,63,0.00,CLR,,0.00,0.0,WeatherDisplay:10.37,2013-07-03 23:58:00,
2013-07-04 02:05:00,59.9,47.7,29.97,NW,315,0.0,0.0,64,0.00,CLR,,0.00,0.0,WeatherDisplay:10.37,2013-07-04 00:05:00,
2013-07-04 02:11:00,59.7,47.9,29.97,WNW,292,0.0,0.0,65,0.00,CLR,,0.00,0.0,WeatherDisplay:10.37,2013-07-04 00:11:00,
2013-07-04 02:17:00,59.7,48.3,29.97,WNW,292,0.0,0.0,66,0.00,CLR,,0.00,0.0,WeatherDisplay:10.37,2013-07-04 00:17:00,
2013-07-04 02:22:00,59.5,48.2,29.97,WNW,292,0.0,0.0,66,0.00,CLR,,0.00,0.0,WeatherDisplay:10.37,2013-07-04 00:22:00,
2013-07-04 02:27:00,59.7,48.7,29.97,West,270,2.3,2.3,67,0.00,CLR,,0.00,0.0,WeatherDisplay:10.37,2013-07-04 00:27:00,
2013-07-04 02:32:00,59.9,48.9,29.97,WNW,292,2.3,2.3,67,0.00,CLR,,0.00,0.0,WeatherDisplay:10.37,2013-07-04 00:32:00,
2013-07-04 02:38:00,59.9,49.3,29.97,WNW,292,2.3,2.3,68,0.00,CLR,,0.00,0.0,WeatherDisplay:10.37,2013-07-04 00:38:00,
2013-07-04 02:43:00,59.9,49.3,29.97,WNW,292,2.3,2.3,68,0.00,CLR,,0.00,0.0,WeatherDisplay:10.37,2013-07-04 00:43:00,
2013-07-04 02:48:00,59.9,49.3,29.97,NNW,338,2.3,2.3,68,0.00,CLR,,0.00,0.0,WeatherDisplay:10.37,2013-07-04 00:48:00,
2013-07-04 02:53:00,59.9,49.3,29.97,NNW,338,2.4,2.4,68,0.00,CLR,,0.00,0.0,WeatherDisplay:10.37,2013-07-04 00:53:00,
2013-07-04 02:59:00,59.9,49.3,29.97,WNW,292,2.3,2.3,68,0.00,CLR,,0.00,0.0,WeatherDisplay:10.37,2013-07-04 00:59:00,
2013-07-04 03:04:00,59.9,49.3,29.97,NNW,338,3.5,3.5,68,0.00,CLR,,0.00,0.0,WeatherDisplay:10.37,2013-07-04 01:04:00,
2013-07-04 03:09:00,59.9,49.7,29.97,NNW,338,2.3,2.3,69,0.00,CLR,,0.00,0.0,WeatherDisplay:10.37,2013-07-04 01:09:00,
2013-07-04 03:14:00,60.1,49.9,29.97,NNW,338,1.2,0.0,69,0.00,CLR,,0.00,0.0,WeatherDisplay:10.37,2013-07-04 01:14:00,
2013-07-04 03:19:00,60.1,49.5,29.97,WNW,292,2.3,2.3,68,0.00,CLR,,0.00,0.0,WeatherDisplay:10.37,2013-07-04 01:19:00,
2013-07-04 03:25:00,59.9,49.3,29.97,WNW,292,0.0,0.0,68,0.00,CLR,,0.00,0.0,WeatherDisplay:10.37,2013-07-04 01:25:00,
2013-07-04 03:30:00,59.7,49.1,29.97,WNW,292,0.0,0.0,68,0.00,CLR,,0.00,0.0,WeatherDisplay:10.37,2013-07-04 01:30:00,
2013-07-04 03:35:00,59.7,49.5,29.97,WNW,292,0.0,0.0,69,0.00,CLR,,0.00,0.0,WeatherDisplay:10.37,2013-07-04 01:35:00,
2013-07-04 03:40:00,59.5,49.0,29.97,WNW,292,0.0,0.0,68,0.00,CLR,,0.00,0.0,WeatherDisplay:10.37,2013-07-04 01:40:00,
2013-07-04 03:46:00,59.5,49.4,29.97,WNW,292,0.0,0.0,69,0.00,CLR,,0.00,0.0,WeatherDisplay:10.37,2013-07-04 01:46:00,
2013-07-04 03:51:00,59.4,48.8,29.97,WNW,292,0.0,0.0,68,0.00,CLR,,0.00,0.0,WeatherDisplay:10.37,2013-07-04 01:51:00,
2013-07-04 03:56:00,59.2,48.6,29.97,WNW,292,0.0,0.0,68,0.00,CLR,,0.00,0.0,WeatherDisplay:10.37,2013-07-04 01:56:00,
2013-07-04 04:01:00,59.0,48.4,29.97,WNW,292,0.0,0.0,68,0.00,CLR,,0.00,0.0,WeatherDisplay:10.37,2013-07-04 02:01:00,
2013-07-04 04:06:00,58.8,48.3,29.97,WNW,292,0.0,0.0,68,0.00,CLR,,0.00,0.0,WeatherDisplay:10.37,2013-07-04 02:06:00,
2013-07-04 04:11:00,58.6,48.5,29.97,WNW,292,0.0,0.0,69,0.00,CLR,,0.00,0.0,WeatherDisplay:10.37,2013-07-04 02:11:00,
2013-07-04 04:16:00,58.5,48.7,29.97,WNW,292,0.0,0.0,70,0.00,CLR,,0.00,0.0,WeatherDisplay:10.37,2013-07-04 02:16:00,
2013-07-04 04:22:00,58.5,48.7,29.97,WNW,292,0.0,0.0,70,0.00,OVC,,0.00,0.0,WeatherDisplay:10.37,2013-07-04 02:22:00,
2013-07-04 04:27:00,58.3,48.5,29.97,WNW,292,0.0,0.0,70,0.00,OVC,,0.00,0.0,WeatherDisplay:10.37,2013-07-04 02:27:00,
2013-07-04 04:32:00,58.3,48.5,29.97,WNW,292,1.4,1.4,70,0.00,OVC,,0.00,0.0,WeatherDisplay:10.37,2013-07-04 02:32:00,
2013-07-04 04:37:00,58.3,48.9,29.97,WNW,292,0.0,0.0,71,0.00,OVC,,0.00,0.0,WeatherDisplay:10.37,2013-07-04 02:37:00,
2013-07-04 04:42:00,58.3,48.9,29.97,WNW,292,0.0,0.0,71,0.00,OVC,,0.00,0.0,WeatherDisplay:10.37,2013-07-04 02:42:00,
2013-07-04 04:47:00,58.1,48.4,29.97,WNW,292,0.0,0.0,70,0.00,OVC,,0.00,0.0,WeatherDisplay:10.37,2013-07-04 02:47:00,
2013-07-04 04:53:00,57.9,48.6,29.97,WNW,292,0.0,0.0,71,0.00,OVC,,0.00,0.0,WeatherDisplay:10.37,2013-07-04 02:53:00,
2013-07-04 04:58:00,57.9,48.6,29.97,WNW,292,0.0,0.0,71,0.00,OVC,,0.00,0.0,WeatherDisplay:10.37,2013-07-04 02:58:00,
2013-07-04 05:03:00,57.7,48.4,29.97,WNW,292,1.2,0.0,71,0.00,OVC,,0.00,0.0,WeatherDisplay:10.37,2013-07-04 03:03:00,
2013-07-04 05:09:00,57.7,49.1,29.97,WNW,292,1.2,0.0,73,0.00,CLR,,0.00,12.8,WeatherDisplay:10.37,2013-07-04 03:09:00,
2013-07-04 05:15:00,57.9,49.3,29.97,NW,315,0.0,0.0,73,0.00,SCT,,0.00,15.8,WeatherDisplay:10.37,2013-07-04 03:15:00,
2013-07-04 05:20:00,57.9,49.3,29.97,NNW,338,0.0,0.0,73,0.00,SCT,,0.00,18.7,WeatherDisplay:10.37,2013-07-04 03:20:00,
2013-07-04 05:25:00,57.9,49.3,29.97,NNW,338,0.0,0.0,73,0.00,BKN,,0.00,21.6,WeatherDisplay:10.37,2013-07-04 03:25:00,
2013-07-04 05:30:00,58.1,49.5,29.97,WNW,292,0.0,0.0,73,0.00,CLR,,0.00,57.2,WeatherDisplay:10.37,2013-07-04 03:30:00,
2013-07-04 05:35:00,58.3,49.7,29.97,WNW,292,0.0,0.0,73,0.00,FEW,,0.00,65.4,WeatherDisplay:10.37,2013-07-04 03:35:00,
2013-07-04 05:40:00,58.5,49.8,29.97,WNW,292,0.0,0.0,73,0.00,FEW,,0.00,75.3,WeatherDisplay:10.37,2013-07-04 03:40:00,
2013-07-04 05:45:00,58.6,50.0,30.00,WNW,292,0.0,0.0,73,0.00,FEW,,0.00,82.9,WeatherDisplay:10.37,2013-07-04 03:45:00,
2013-07-04 05:51:00,59.0,50.4,30.00,WNW,292,0.0,0.0,73,0.00,FEW,,0.00,94.0,WeatherDisplay:10.37,2013-07-04 03:51:00,
2013-07-04 05:56:00,59.5,50.9,30.00,WNW,292,0.0,0.0,73,0.00,FEW,,0.00,106.8,WeatherDisplay:10.37,2013-07-04 03:56:00,
2013-07-04 06:01:00,59.9,51.2,30.00,WNW,292,0.0,0.0,73,0.00,FEW,,0.00,115.6,WeatherDisplay:10.37,2013-07-04 04:01:00,
2013-07-04 06:02:00,60.1,51.4,30.00,WNW,292,0.0,0.0,73,0.00,FEW,,0.00,120.8,WeatherDisplay:10.37,2013-07-04 04:02:00,
2013-07-04 06:07:00,60.4,51.7,30.00,NNE,22,0.0,0.0,73,0.00,FEW,,0.00,135.4,WeatherDisplay:10.37,2013-07-04 04:07:00,
2013-07-04 06:12:00,61.0,52.3,30.00,NE,45,0.0,0.0,73,0.00,FEW,,0.00,149.5,WeatherDisplay:10.37,2013-07-04 04:12:00,
2013-07-04 06:17:00,61.5,52.4,30.00,NE,45,0.0,0.0,72,0.00,FEW,,0.00,164.1,WeatherDisplay:10.37,2013-07-04 04:17:00,
2013-07-04 06:23:00,61.9,52.8,30.00,NW,315,0.0,0.0,72,0.00,FEW,,0.00,179.8,WeatherDisplay:10.37,2013-07-04 04:23:00,
2013-07-04 06:28:00,62.2,52.7,30.00,NW,315,1.2,0.0,71,0.00,FEW,,0.00,192.7,WeatherDisplay:10.37,2013-07-04 04:28:00,
2013-07-04 06:33:00,63.0,53.4,30.00,NW,315,0.0,0.0,71,0.00,FEW,,0.00,206.7,WeatherDisplay:10.37,2013-07-04 04:33:00,
2013-07-04 06:38:00,63.5,53.5,30.00,NNW,338,2.3,2.3,70,0.00,FEW,,0.00,219.5,WeatherDisplay:10.37,2013-07-04 04:38:00,
2013-07-04 06:43:00,64.0,54.1,30.00,NNW,338,1.2,0.0,70,0.00,FEW,,0.00,235.3,WeatherDisplay:10.37,2013-07-04 04:43:00,
2013-07-04 06:48:00,64.8,54.3,30.00,NNW,338,0.0,0.0,69,0.00,FEW,,0.00,246.4,WeatherDisplay:10.37,2013-07-04 04:48:00,
2013-07-04 06:54:00,64.9,54.5,30.00,WNW,292,2.3,2.3,69,0.00,FEW,,0.00,262.1,WeatherDisplay:10.37,2013-07-04 04:54:00,
2013-07-04 06:59:00,65.3,54.5,30.00,WSW,248,3.5,3.5,68,0.00,FEW,,0.00,275.0,WeatherDisplay:10.37,2013-07-04 04:59:00,
2013-07-04 07:04:00,66.0,54.7,30.00,NNW,338,4.0,4.0,67,0.00,FEW,,0.00,289.6,WeatherDisplay:10.37,2013-07-04 05:04:00,
2013-07-04 07:09:00,66.4,54.7,30.00,WNW,292,3.5,3.5,66,0.00,FEW,,0.00,304.7,WeatherDisplay:10.37,2013-07-04 05:09:00,
2013-07-04 07:14:00,66.7,55.0,30.00,NNW,338,2.3,2.3,66,0.00,FEW,,0.00,317.6,WeatherDisplay:10.37,2013-07-04 05:14:00,
2013-07-04 07:19:00,67.3,55.1,30.00,NNE,22,3.5,3.5,65,0.00,FEW,,0.00,332.2,WeatherDisplay:10.37,2013-07-04 05:19:00,
2013-07-04 07:25:00,68.2,56.0,30.00,NNW,338,0.0,0.0,65,0.00,FEW,,0.00,345.0,WeatherDisplay:10.37,2013-07-04 05:25:00,
2013-07-04 07:30:00,68.9,55.8,29.97,NW,315,2.3,2.3,63,0.00,FEW,,0.00,362.0,WeatherDisplay:10.37,2013-07-04 05:30:00,
2013-07-04 07:35:00,69.4,56.3,29.97,WNW,292,2.9,2.9,63,0.00,FEW,,0.00,369.0,WeatherDisplay:10.37,2013-07-04 05:35:00,
2013-07-04 07:40:00,70.0,55.9,29.97,NNW,338,2.3,2.3,61,0.00,FEW,,0.00,380.6,WeatherDisplay:10.37,2013-07-04 05:40:00,
2013-07-04 07:46:00,70.3,55.8,30.00,WNW,292,2.6,2.6,60,0.00,FEW,,0.00,394.7,WeatherDisplay:10.37,2013-07-04 05:46:00,
2013-07-04 07:51:00,70.7,55.7,30.00,NNW,338,3.5,3.5,59,0.00,FEW,,0.00,407.5,WeatherDisplay:10.37,2013-07-04 05:51:00,
2013-07-04 07:56:00,71.4,55.9,30.00,NNW,338,1.2,0.0,58,0.00,FEW,,0.00,420.3,WeatherDisplay:10.37,2013-07-04 05:56:00,
2013-07-04 08:01:00,71.6,55.6,30.00,NNW,338,2.4,2.4,57,0.00,FEW,,0.00,429.1,WeatherDisplay:10.37,2013-07-04 06:01:00,
2013-07-04 08:06:00,72.3,56.2,30.00,NNW,338,3.5,3.5,57,0.00,FEW,,0.00,440.2,WeatherDisplay:10.37,2013-07-04 06:06:00,
2013-07-04 08:12:00,72.9,56.2,30.03,North,0,2.3,2.3,56,0.00,FEW,,0.00,454.8,WeatherDisplay:10.37,2013-07-04 06:12:00,
2013-07-04 08:17:00,73.4,56.2,30.03,NNW,338,3.5,3.5,55,0.00,FEW,,0.00,465.9,WeatherDisplay:10.37,2013-07-04 06:17:00,
2013-07-04 08:22:00,73.8,56.1,30.03,WNW,292,4.6,4.6,54,0.00,FEW,,0.00,474.6,WeatherDisplay:10.37,2013-07-04 06:22:00,
2013-07-04 08:27:00,74.3,56.6,30.00,WNW,292,3.5,3.5,54,0.00,FEW,,0.00,484.6,WeatherDisplay:10.37,2013-07-04 06:27:00,
2013-07-04 08:32:00,74.7,56.4,30.00,West,270,2.3,0.0,53,0.00,FEW,,0.00,495.7,WeatherDisplay:10.37,2013-07-04 06:32:00,
2013-07-04 08:37:00,75.2,56.9,30.00,WNW,292,3.5,3.5,53,0.00,FEW,,0.00,506.2,WeatherDisplay:10.37,2013-07-04 06:37:00,
2013-07-04 08:42:00,75.6,56.2,30.00,WNW,292,4.6,4.6,51,0.00,FEW,,0.00,514.3,WeatherDisplay:10.37,2013-07-04 06:42:00,
2013-07-04 08:48:00,76.3,56.8,30.00,West,270,4.6,4.6,51,0.00,FEW,,0.00,528.9,WeatherDisplay:10.37,2013-07-04 06:48:00,
2013-07-04 08:53:00,76.8,56.8,30.00,SE,135,3.5,3.5,50,0.00,FEW,,0.00,538.9,WeatherDisplay:10.37,2013-07-04 06:53:00,
2013-07-04 08:58:00,77.4,56.7,30.00,ENE,68,3.5,3.5,49,0.00,FEW,,0.00,549.9,WeatherDisplay:10.37,2013-07-04 06:58:00,
2013-07-04 09:04:00,77.9,57.2,30.00,WNW,292,3.5,3.5,49,0.00,FEW,,0.00,561.6,WeatherDisplay:10.37,2013-07-04 07:04:00,
2013-07-04 09:09:00,78.4,57.1,30.00,NW,315,3.6,4.0,48,0.00,FEW,,0.00,575.6,WeatherDisplay:10.37,2013-07-04 07:09:00,
2013-07-04 09:14:00,78.6,56.7,30.00,NW,315,4.6,4.6,47,0.00,FEW,,0.00,584.4,WeatherDisplay:10.37,2013-07-04 07:14:00,
2013-07-04 09:19:00,78.8,56.3,30.00,West,270,3.5,3.5,46,0.00,FEW,,0.00,597.2,WeatherDisplay:10.37,2013-07-04 07:19:00,
2013-07-04 09:24:00,79.2,56.6,30.00,NW,315,4.6,4.6,46,0.00,FEW,,0.00,605.4,WeatherDisplay:10.37,2013-07-04 07:24:00,
2013-07-04 09:30:00,79.7,56.5,30.00,NNW,338,4.6,4.6,45,0.00,FEW,,0.00,617.1,WeatherDisplay:10.37,2013-07-04 07:30:00,
2013-07-04 09:35:00,80.1,56.2,30.00,WNW,292,5.8,5.8,44,0.00,FEW,,0.00,627.0,WeatherDisplay:10.37,2013-07-04 07:35:00,
2013-07-04 09:40:00,80.2,56.3,30.00,West,270,3.8,3.8,44,0.00,FEW,,0.00,631.1,WeatherDisplay:10.37,2013-07-04 07:40:00,
2013-07-04 09:45:00,80.8,56.8,30.00,East,90,3.5,3.5,44,0.00,FEW,,0.00,642.8,WeatherDisplay:10.37,2013-07-04 07:45:00,
2013-07-04 09:51:00,81.0,56.4,30.00,ENE,68,3.5,3.5,43,0.00,FEW,,0.00,646.9,WeatherDisplay:10.37,2013-07-04 07:51:00,
2013-07-04 09:56:00,81.1,55.9,30.00,WNW,292,2.3,2.3,42,0.00,SCT,,0.00,507.3,WeatherDisplay:10.37,2013-07-04 07:56:00,
2013-07-04 10:01:00,81.5,56.2,30.00,WNW,292,4.6,4.6,42,0.00,OVC,,0.00,266.2,WeatherDisplay:10.37,2013-07-04 08:01:00,
2013-07-04 10:06:00,81.7,56.4,30.00,WNW,292,2.4,2.4,42,0.00,BKN,,0.00,394.7,WeatherDisplay:10.37,2013-07-04 08:06:00,
2013-07-04 10:11:00,82.0,56.0,30.00,NNW,338,3.5,3.5,41,0.00,SCT,,0.00,676.6,WeatherDisplay:10.37,2013-07-04 08:11:00,
2013-07-04 10:16:00,82.4,56.3,30.00,East,90,5.8,5.8,41,0.00,SCT,,0.00,685.4,WeatherDisplay:10.37,2013-07-04 08:16:00,
2013-07-04 10:21:00,82.6,56.5,30.00,ENE,68,5.6,5.6,41,0.00,SCT,,0.00,685.4,WeatherDisplay:10.37,2013-07-04 08:21:00,
2013-07-04 10:26:00,82.6,56.5,30.00,ENE,68,3.5,3.5,41,0.00,SCT,,0.00,702.3,WeatherDisplay:10.37,2013-07-04 08:26:00,
2013-07-04 10:31:00,82.9,56.8,30.00,ENE,68,5.8,5.8,41,0.00,SCT,,0.00,707.0,WeatherDisplay:10.37,2013-07-04 08:31:00,
2013-07-04 10:36:00,82.9,56.8,30.00,NW,315,5.8,5.8,41,0.00,SCT,,0.00,705.2,WeatherDisplay:10.37,2013-07-04 08:36:00,
2013-07-04 10:41:00,83.5,56.6,29.97,ENE,68,6.0,6.0,40,0.00,SCT,,0.00,732.7,WeatherDisplay:10.37,2013-07-04 08:41:00,
2013-07-04 10:47:00,83.3,55.8,29.97,NNE,22,2.3,2.3,39,0.00,SCT,,0.00,732.7,WeatherDisplay:10.37,2013-07-04 08:47:00,
2013-07-04 10:52:00,83.3,55.8,29.97,WSW,248,5.8,5.8,39,0.00,SCT,,0.00,725.1,WeatherDisplay:10.37,2013-07-04 08:52:00,
2013-07-04 10:57:00,83.7,56.1,30.00,NNE,22,3.6,3.6,39,0.00,SCT,,0.00,736.8,WeatherDisplay:10.37,2013-07-04 08:57:00,
2013-07-04 11:02:00,83.3,55.8,30.00,ENE,68,2.3,2.3,39,0.00,SCT,,0.00,739.7,WeatherDisplay:10.37,2013-07-04 09:02:00,
2013-07-04 11:08:00,83.7,56.1,30.00,West,270,2.9,2.9,39,0.00,SCT,,0.00,739.7,WeatherDisplay:10.37,2013-07-04 09:08:00,
2013-07-04 11:13:00,84.0,56.4,30.00,West,270,5.8,5.8,39,0.00,SCT,,0.00,760.7,WeatherDisplay:10.37,2013-07-04 09:13:00,
2013-07-04 11:18:00,83.8,56.2,30.00,SW,225,3.5,3.5,39,0.00,SCT,,0.00,748.4,WeatherDisplay:10.37,2013-07-04 09:18:00,
2013-07-04 11:23:00,84.4,56.7,30.00,NNW,338,5.8,5.8,39,0.00,SCT,,0.00,625.8,WeatherDisplay:10.37,2013-07-04 09:23:00,
2013-07-04 11:28:00,84.0,55.7,30.00,NNW,338,8.1,8.1,38,0.00,SCT,,0.00,791.1,WeatherDisplay:10.37,2013-07-04 09:28:00,
2013-07-04 11:33:00,84.4,56.0,30.00,SSW,202,4.6,4.6,38,0.00,SCT,,0.00,768.3,WeatherDisplay:10.37,2013-07-04 09:33:00,
2013-07-04 11:38:00,84.2,55.8,30.00,NNW,338,8.1,8.1,38,0.00,SCT,,0.00,810.4,WeatherDisplay:10.37,2013-07-04 09:38:00,
2013-07-04 11:44:00,84.6,56.2,30.00,WNW,292,8.1,8.1,38,0.00,FEW,,0.00,827.5,WeatherDisplay:10.37,2013-07-04 09:44:00,
2013-07-04 11:49:00,84.6,56.2,30.00,SSW,202,4.6,4.6,38,0.00,SCT,,0.00,809.8,WeatherDisplay:10.37,2013-07-04 09:49:00,
2013-07-04 11:54:00,84.6,55.4,30.00,NNE,22,4.6,4.6,37,0.00,FEW,,0.00,845.3,WeatherDisplay:10.37,2013-07-04 09:54:00,
2013-07-04 11:59:00,84.9,55.7,30.00,WNW,292,8.1,8.1,37,0.00,FEW,,0.00,836.7,WeatherDisplay:10.37,2013-07-04 09:59:00,
2013-07-04 12:04:00,85.1,55.1,30.00,NNW,338,5.8,5.8,36,0.00,SCT,,0.00,828.8,WeatherDisplay:10.37,2013-07-04 10:04:00,
2013-07-04 12:10:00,85.3,55.3,30.00,West,270,8.1,8.1,36,0.00,FEW,,0.00,855.7,WeatherDisplay:10.37,2013-07-04 10:10:00,
2013-07-04 12:15:00,85.1,54.4,30.00,WNW,292,4.6,4.6,35,0.00,SCT,,0.00,836.7,WeatherDisplay:10.37,2013-07-04 10:15:00,
2013-07-04 12:20:00,85.3,54.5,30.00,West,270,6.9,6.9,35,0.00,FEW,,0.00,854.5,WeatherDisplay:10.37,2013-07-04 10:20:00,
2013-07-04 12:25:00,85.6,54.8,30.00,NNW,338,5.8,5.8,35,0.00,FEW,,0.00,884.6,WeatherDisplay:10.37,2013-07-04 10:25:00,
2013-07-04 12:30:00,85.5,54.7,30.00,NE,45,6.9,6.9,35,0.00,OVC,,0.00,139.2,WeatherDisplay:10.37,2013-07-04 10:30:00,
2013-07-04 12:36:00,84.9,54.2,30.00,East,90,5.8,5.8,35,0.00,FEW,,0.00,863.1,WeatherDisplay:10.37,2013-07-04 10:36:00,
2013-07-04 12:41:00,85.3,54.5,30.00,West,270,5.8,5.8,35,0.00,FEW,,0.00,875.4,WeatherDisplay:10.37,2013-07-04 10:41:00,
2013-07-04 12:46:00,85.6,54.8,30.00,NW,315,5.9,5.9,35,0.00,FEW,,0.00,909.7,WeatherDisplay:10.37,2013-07-04 10:46:00,
2013-07-04 12:51:00,85.6,54.0,30.00,WNW,292,4.6,4.6,34,0.00,OVC,,0.00,203.5,WeatherDisplay:10.37,2013-07-04 10:51:00,
2013-07-04 12:56:00,85.1,53.6,30.00,NNW,338,4.6,4.6,34,0.00,FEW,,0.00,861.9,WeatherDisplay:10.37,2013-07-04 10:56:00,
2013-07-04 13:01:00,85.5,53.9,30.00,SSE,158,5.8,5.8,34,0.00,OVC,,0.00,204.7,WeatherDisplay:10.37,2013-07-04 11:01:00,
2013-07-04 13:06:00,85.6,54.0,30.00,WNW,292,4.6,4.6,34,0.00,FEW,,0.00,872.3,WeatherDisplay:10.37,2013-07-04 11:06:00,
2013-07-04 13:11:00,86.0,54.4,29.97,NNE,22,6.9,6.9,34,0.00,FEW,,0.00,909.7,WeatherDisplay:10.37,2013-07-04 11:11:00,
2013-07-04 13:16:00,86.0,54.4,29.97,WNW,292,8.1,8.1,34,0.00,OVC,,0.00,257.5,WeatherDisplay:10.37,2013-07-04 11:16:00,
2013-07-04 13:21:00,85.8,54.2,29.97,NNW,338,5.8,5.8,34,0.00,OVC,,0.00,230.5,WeatherDisplay:10.37,2013-07-04 11:21:00,
2013-07-04 13:27:00,85.6,54.0,30.03,WNW,292,5.8,5.8,34,0.00,FEW,,0.00,927.5,WeatherDisplay:10.37,2013-07-04 11:27:00,
2013-07-04 13:32:00,85.6,54.0,30.03,NNW,338,6.9,6.9,34,0.00,OVC,,0.00,247.0,WeatherDisplay:10.37,2013-07-04 11:32:00,
2013-07-04 13:37:00,85.5,53.9,30.03,NNW,338,6.9,6.9,34,0.00,FEW,,0.00,905.4,WeatherDisplay:10.37,2013-07-04 11:37:00,
2013-07-04 13:42:00,85.6,54.0,30.00,NNW,338,3.8,3.8,34,0.00,FEW,,0.00,900.5,WeatherDisplay:10.37,2013-07-04 11:42:00,
2013-07-04 13:47:00,85.8,54.2,30.00,ESE,112,8.1,8.1,34,0.00,FEW,,0.00,876.6,WeatherDisplay:10.37,2013-07-04 11:47:00,
2013-07-04 13:53:00,86.2,54.5,30.00,North,0,2.3,2.3,34,0.00,FEW,,0.00,884.6,WeatherDisplay:10.37,2013-07-04 11:53:00,
2013-07-04 13:58:00,86.7,55.0,30.00,NNW,338,5.4,5.4,34,0.00,FEW,,0.00,890.1,WeatherDisplay:10.37,2013-07-04 11:58:00,
2013-07-04 14:03:00,87.1,54.5,30.00,NNW,338,5.8,5.8,33,0.00,FEW,,0.00,857.6,WeatherDisplay:10.37,2013-07-04 12:03:00,
2013-07-04 14:08:00,86.7,55.0,30.00,NE,45,4.6,4.6,34,0.00,OVC,,0.00,153.9,WeatherDisplay:10.37,2013-07-04 12:08:00,
2013-07-04 14:13:00,86.0,53.5,30.00,North,0,3.5,3.5,33,0.00,OVC,,0.00,177.8,WeatherDisplay:10.37,2013-07-04 12:13:00,
2013-07-04 14:19:00,85.5,53.1,30.00,ENE,68,3.5,3.5,33,0.00,OVC,,0.00,290.6,WeatherDisplay:10.37,2013-07-04 12:19:00,
2013-07-04 14:24:00,85.5,53.9,30.00,NNE,22,5.8,5.8,34,0.00,OVC,,0.00,228.6,WeatherDisplay:10.37,2013-07-04 12:24:00,
2013-07-04 14:29:00,85.3,52.9,30.00,NNW,338,3.6,3.6,33,0.00,OVC,,0.00,223.1,WeatherDisplay:10.37,2013-07-04 12:29:00,
2013-07-04 14:34:00,85.5,53.1,30.00,ENE,68,6.0,6.0,33,0.00,FEW,,0.00,857.6,WeatherDisplay:10.37,2013-07-04 12:34:00,
2013-07-04 14:39:00,85.6,53.2,30.00,WNW,292,8.1,8.1,33,0.00,OVC,,0.00,239.7,WeatherDisplay:10.37,2013-07-04 12:39:00,
2013-07-04 14:45:00,85.3,52.9,30.00,NNW,338,4.6,4.6,33,0.00,SCT,,0.00,757.1,WeatherDisplay:10.37,2013-07-04 12:45:00,
2013-07-04 14:50:00,86.0,53.5,30.00,NNE,22,7.1,7.1,33,0.00,FEW,,0.00,804.9,WeatherDisplay:10.37,2013-07-04 12:50:00,
2013-07-04 14:55:00,86.2,53.7,30.00,NNE,22,3.5,3.5,33,0.00,FEW,,0.00,803.6,WeatherDisplay:10.37,2013-07-04 12:55:00,
2013-07-04 15:00:00,86.7,54.2,29.97,NNE,22,5.9,5.9,33,0.00,FEW,,0.00,791.4,WeatherDisplay:10.37,2013-07-04 13:00:00,
2013-07-04 15:05:00,87.1,53.6,29.97,NNW,338,6.9,6.9,32,0.00,FEW,,0.00,773.6,WeatherDisplay:10.37,2013-07-04 13:05:00,
2013-07-04 15:11:00,87.4,54.8,29.97,West,270,4.6,4.6,33,0.00,FEW,,0.00,803.6,WeatherDisplay:10.37,2013-07-04 13:11:00,
2013-07-04 15:16:00,87.6,54.1,30.00,West,270,8.1,8.1,32,0.00,FEW,,0.00,794.4,WeatherDisplay:10.37,2013-07-04 13:16:00,
2013-07-04 15:21:00,87.6,54.1,30.00,NE,45,4.6,4.6,32,0.00,FEW,,0.00,755.8,WeatherDisplay:10.37,2013-07-04 13:21:00,
2013-07-04 15:26:00,87.8,54.3,30.00,NE,45,3.5,3.5,32,0.00,BKN,,0.00,435.2,WeatherDisplay:10.37,2013-07-04 13:26:00,
2013-07-04 15:31:00,88.0,54.4,30.00,West,270,4.7,4.7,32,0.00,FEW,,0.00,747.9,WeatherDisplay:10.37,2013-07-04 13:31:00,
2013-07-04 15:36:00,88.3,54.7,30.00,WNW,292,6.9,6.9,32,0.00,FEW,,0.00,722.7,WeatherDisplay:10.37,2013-07-04 13:36:00,
2013-07-04 15:42:00,88.3,54.7,30.00,WNW,292,4.6,4.6,32,0.00,FEW,,0.00,719.7,WeatherDisplay:10.37,2013-07-04 13:42:00,
2013-07-04 15:47:00,88.3,53.9,30.00,ENE,68,6.4,6.4,31,0.00,SCT,,0.00,698.8,WeatherDisplay:10.37,2013-07-04 13:47:00,
2013-07-04 15:52:00,88.0,53.6,30.00,NE,45,5.8,5.8,31,0.00,SCT,,0.00,673.1,WeatherDisplay:10.37,2013-07-04 13:52:00,
2013-07-04 15:57:00,88.3,53.9,30.00,NNW,338,8.1,8.1,31,0.00,SCT,,0.00,671.8,WeatherDisplay:10.37,2013-07-04 13:57:00,
2013-07-04 16:02:00,88.3,53.9,30.00,NE,45,5.8,5.8,31,0.00,SCT,,0.00,664.5,WeatherDisplay:10.37,2013-07-04 14:02:00,
2013-07-04 16:07:00,88.3,53.9,30.00,NNE,22,8.1,8.1,31,0.00,SCT,,0.00,649.2,WeatherDisplay:10.37,2013-07-04 14:07:00,
2013-07-04 16:13:00,88.3,53.9,29.97,NNW,338,7.8,7.8,31,0.00,SCT,,0.00,646.7,WeatherDisplay:10.37,2013-07-04 14:13:00,
2013-07-04 16:18:00,88.5,54.0,29.97,NW,315,4.6,4.6,31,0.00,SCT,,0.00,637.5,WeatherDisplay:10.37,2013-07-04 14:18:00,
2013-07-04 16:23:00,88.5,54.0,29.97,WNW,292,4.3,4.3,31,0.00,SCT,,0.00,617.9,WeatherDisplay:10.37,2013-07-04 14:23:00,
2013-07-04 16:28:00,88.9,53.4,30.00,WNW,292,5.8,5.8,30,0.00,SCT,,0.00,603.2,WeatherDisplay:10.37,2013-07-04 14:28:00,
2013-07-04 16:34:00,88.9,54.3,30.00,NNW,338,4.9,4.9,31,0.00,SCT,,0.00,582.4,WeatherDisplay:10.37,2013-07-04 14:34:00,
2013-07-04 16:39:00,88.9,53.4,30.00,NNW,338,4.6,4.6,30,0.00,SCT,,0.00,573.2,WeatherDisplay:10.37,2013-07-04 14:39:00,
2013-07-04 16:44:00,88.7,53.3,29.97,NW,315,8.1,8.1,30,0.00,SCT,,0.00,564.0,WeatherDisplay:10.37,2013-07-04 14:44:00,
2013-07-04 16:49:00,88.7,53.3,29.97,NE,45,4.6,4.6,30,0.00,SCT,,0.00,546.2,WeatherDisplay:10.37,2013-07-04 14:49:00,
2013-07-04 16:55:00,88.3,53.9,29.97,WNW,292,5.8,5.8,31,0.00,SCT,,0.00,532.7,WeatherDisplay:10.37,2013-07-04 14:55:00,
2013-07-04 17:00:00,88.7,53.3,29.97,NNW,338,3.8,3.8,30,0.00,SCT,,0.00,526.6,WeatherDisplay:10.37,2013-07-04 15:00:00,
2013-07-04 17:05:00,88.7,53.3,29.97,NW,315,5.8,5.8,30,0.00,SCT,,0.00,514.9,WeatherDisplay:10.37,2013-07-04 15:05:00,
2013-07-04 17:10:00,88.7,53.3,29.97,WNW,292,6.9,6.9,30,0.00,SCT,,0.00,499.6,WeatherDisplay:10.37,2013-07-04 15:10:00,
2013-07-04 17:15:00,88.7,53.3,29.97,North,0,8.1,8.1,30,0.00,SCT,,0.00,489.2,WeatherDisplay:10.37,2013-07-04 15:15:00,
2013-07-04 17:21:00,88.7,53.3,29.97,NNW,338,5.8,5.8,30,0.00,SCT,,0.00,472.6,WeatherDisplay:10.37,2013-07-04 15:21:00,
2013-07-04 17:26:00,88.3,53.0,29.97,NNW,338,4.9,4.9,30,0.00,SCT,,0.00,450.6,WeatherDisplay:10.37,2013-07-04 15:26:00,
2013-07-04 17:31:00,88.3,53.0,29.97,NNW,338,5.6,5.6,30,0.00,SCT,,0.00,437.1,WeatherDisplay:10.37,2013-07-04 15:31:00,
2013-07-04 17:36:00,88.2,52.8,29.97,ENE,68,4.6,4.6,30,0.00,SCT,,0.00,426.6,WeatherDisplay:10.37,2013-07-04 15:36:00,
2013-07-04 17:41:00,88.0,52.7,29.97,North,0,4.6,4.6,30,0.00,SCT,,0.00,411.3,WeatherDisplay:10.37,2013-07-04 15:41:00,
2013-07-04 17:46:00,87.4,52.2,29.97,NNW,338,5.9,5.9,30,0.00,SCT,,0.00,365.3,WeatherDisplay:10.37,2013-07-04 15:46:00,
2013-07-04 17:52:00,87.3,52.0,29.97,WNW,292,5.8,5.8,30,0.00,SCT,,0.00,336.5,WeatherDisplay:10.37,2013-07-04 15:52:00,
2013-07-04 17:57:00,87.1,51.9,29.97,NNE,22,3.5,3.6,30,0.00,OVC,,0.00,68.7,WeatherDisplay:10.37,2013-07-04 15:57:00,
2013-07-04 18:02:00,86.5,51.4,29.97,WNW,292,5.8,5.8,30,0.00,OVC,,0.00,121.4,WeatherDisplay:10.37,2013-07-04 16:02:00,
2013-07-04 18:07:00,86.2,51.1,29.97,NNW,338,4.6,4.6,30,0.00,OVC,,0.00,61.3,WeatherDisplay:10.37,2013-07-04 16:07:00,
2013-07-04 18:12:00,86.2,51.1,29.97,NNW,338,5.8,5.8,30,0.00,OVC,,0.00,61.3,WeatherDisplay:10.37,2013-07-04 16:12:00,
2013-07-04 18:18:00,85.8,50.8,29.97,NW,315,5.8,5.8,30,0.00,OVC,,0.00,61.3,WeatherDisplay:10.37,2013-07-04 16:18:00,
2013-07-04 18:23:00,85.6,50.6,29.97,NW,315,9.2,9.2,30,0.00,OVC,,0.00,61.3,WeatherDisplay:10.37,2013-07-04 16:23:00,
2013-07-04 18:28:00,85.5,51.4,29.97,NNE,22,3.5,3.5,31,0.00,OVC,,0.00,61.3,WeatherDisplay:10.37,2013-07-04 16:28:00,
2013-07-04 18:33:00,85.3,51.2,29.97,WNW,292,5.8,5.8,31,0.00,OVC,,0.00,61.3,WeatherDisplay:10.37,2013-07-04 16:33:00,
2013-07-04 18:38:00,85.1,51.1,29.97,NW,315,9.2,9.2,31,0.00,OVC,,0.00,61.3,WeatherDisplay:10.37,2013-07-04 16:38:00,
2013-07-04 18:43:00,84.9,50.9,30.00,NW,315,6.9,6.9,31,0.00,OVC,,0.00,61.3,WeatherDisplay:10.37,2013-07-04 16:43:00,
2013-07-04 18:49:00,84.7,50.8,30.00,NNW,338,5.8,5.8,31,0.00,OVC,,0.00,61.3,WeatherDisplay:10.37,2013-07-04 16:49:00,
2013-07-04 18:54:00,84.6,50.6,30.00,North,0,8.5,8.5,31,0.00,OVC,,0.00,58.2,WeatherDisplay:10.37,2013-07-04 16:54:00,
2013-07-04 18:59:00,84.2,50.3,30.00,WNW,292,7.1,7.1,31,0.00,OVC,,0.00,57.0,WeatherDisplay:10.37,2013-07-04 16:59:00,
2013-07-04 19:04:00,83.8,50.0,30.00,NNW,338,6.2,6.2,31,0.00,OVC,,0.00,52.1,WeatherDisplay:10.37,2013-07-04 17:04:00,
2013-07-04 19:09:00,83.7,49.8,30.00,NNW,338,5.8,5.8,31,0.00,OVC,,0.00,52.1,WeatherDisplay:10.37,2013-07-04 17:09:00,
2013-07-04 19:14:00,83.5,49.7,30.00,NNW,338,5.8,5.8,31,0.00,OVC,,0.00,52.1,WeatherDisplay:10.37,2013-07-04 17:14:00,
2013-07-04 19:20:00,83.3,49.5,30.00,WNW,292,3.5,3.5,31,0.00,OVC,,0.00,50.9,WeatherDisplay:10.37,2013-07-04 17:20:00,
2013-07-04 19:25:00,83.1,50.2,30.00,North,0,6.9,6.9,32,0.00,OVC,,0.00,49.7,WeatherDisplay:10.37,2013-07-04 17:25:00,
2013-07-04 19:30:00,82.9,50.0,29.97,NNW,338,3.5,3.5,32,0.00,OVC,,0.00,52.1,WeatherDisplay:10.37,2013-07-04 17:30:00,
2013-07-04 19:35:00,82.8,49.9,29.97,West,270,6.2,6.2,32,0.00,OVC,,0.00,46.6,WeatherDisplay:10.37,2013-07-04 17:35:00,
2013-07-04 19:40:00,82.6,49.7,29.97,WNW,292,5.9,5.9,32,0.00,OVC,,0.00,44.7,WeatherDisplay:10.37,2013-07-04 17:40:00,
2013-07-04 19:45:00,82.4,49.6,30.00,WNW,292,3.5,3.5,32,0.00,OVC,,0.00,43.5,WeatherDisplay:10.37,2013-07-04 17:45:00,
2013-07-04 19:51:00,82.0,49.3,30.00,North,0,6.2,6.2,32,0.00,OVC,,0.00,37.4,WeatherDisplay:10.37,2013-07-04 17:51:00,
2013-07-04 19:56:00,81.9,49.1,30.00,NNW,338,4.6,4.6,32,0.00,OVC,,0.00,34.3,WeatherDisplay:10.37,2013-07-04 17:56:00,
2013-07-04 20:01:00,81.7,48.9,30.00,WNW,292,3.5,3.5,32,0.00,OVC,,0.00,28.2,WeatherDisplay:10.37,2013-07-04 18:01:00,
2013-07-04 20:06:00,81.5,48.8,30.00,NNW,338,5.8,5.8,32,0.00,OVC,,0.00,22.7,WeatherDisplay:10.37,2013-07-04 18:06:00,
2013-07-04 20:11:00,81.1,48.5,30.00,WNW,292,4.6,4.6,32,0.00,OVC,,0.00,16.6,WeatherDisplay:10.37,2013-07-04 18:11:00,
2013-07-04 20:17:00,81.0,49.1,30.00,NNW,338,2.3,2.9,33,0.00,OVC,,0.00,13.5,WeatherDisplay:10.37,2013-07-04 18:17:00,
2013-07-04 20:22:00,80.6,48.8,30.00,West,270,2.3,2.3,33,0.00,OVC,,0.00,10.4,WeatherDisplay:10.37,2013-07-04 18:22:00,
2013-07-04 20:27:00,80.2,48.5,29.97,NNW,338,2.3,2.3,33,0.00,OVC,,0.00,9.2,WeatherDisplay:10.37,2013-07-04 18:27:00,
2013-07-04 20:32:00,79.9,48.2,29.97,NW,315,1.2,0.0,33,0.00,OVC,,0.00,7.4,WeatherDisplay:10.37,2013-07-04 18:32:00,
2013-07-04 20:37:00,79.3,48.5,29.97,WNW,292,2.3,2.3,34,0.00,OVC,,0.00,4.3,WeatherDisplay:10.37,2013-07-04 18:37:00,
2013-07-04 20:43:00,78.8,48.1,30.00,WNW,292,2.3,0.0,34,0.00,OVC,,0.00,3.1,WeatherDisplay:10.37,2013-07-04 18:43:00,
2013-07-04 20:48:00,78.4,47.7,30.00,WNW,292,2.3,2.3,34,0.00,OVC,,0.00,1.2,WeatherDisplay:10.37,2013-07-04 18:48:00,
2013-07-04 20:53:00,77.9,47.3,30.00,WNW,292,2.3,2.3,34,0.00,OVC,,0.00,1.2,WeatherDisplay:10.37,2013-07-04 18:53:00,
2013-07-04 20:58:00,77.5,47.7,30.00,WNW,292,1.2,1.4,35,0.00,OVC,,0.00,1.2,WeatherDisplay:10.37,2013-07-04 18:58:00,
2013-07-04 21:03:00,77.0,47.2,30.00,WNW,292,2.3,2.3,35,0.00,CLR,,0.00,0.0,WeatherDisplay:10.37,2013-07-04 19:03:00,
2013-07-04 21:08:00,76.5,46.8,30.00,WNW,292,1.4,1.4,35,0.00,CLR,,0.00,0.0,WeatherDisplay:10.37,2013-07-04 19:08:00,
2013-07-04 21:13:00,75.9,47.0,30.00,WNW,292,1.2,1.2,36,0.00,CLR,,0.00,0.0,WeatherDisplay:10.37,2013-07-04 19:13:00,
2013-07-04 21:19:00,75.6,46.7,30.00,WNW,292,1.2,0.0,36,0.00,CLR,,0.00,0.0,WeatherDisplay:10.37,2013-07-04 19:19:00,
2013-07-04 21:24:00,75.2,46.4,30.00,WNW,292,0.0,0.0,36,0.00,CLR,,0.00,0.0,WeatherDisplay:10.37,2013-07-04 19:24:00,
2013-07-04 21:29:00,74.8,46.1,30.00,WNW,292,0.0,0.0,36,0.00,CLR,,0.00,0.0,WeatherDisplay:10.37,2013-07-04 19:29:00,
2013-07-04 21:34:00,74.5,45.8,30.00,WNW,292,0.0,0.0,36,0.00,CLR,,0.00,0.0,WeatherDisplay:10.37,2013-07-04 19:34:00,
2013-07-04 21:39:00,74.1,46.2,30.00,WNW,292,0.0,0.0,37,0.00,CLR,,0.00,0.0,WeatherDisplay:10.37,2013-07-04 19:39:00,
2013-07-04 21:45:00,73.8,46.6,30.00,WNW,292,0.0,0.0,38,0.00,CLR,,0.00,0.0,WeatherDisplay:10.37,2013-07-04 19:45:00,
2013-07-04 21:50:00,73.4,46.2,30.00,West,270,5.8,5.8,38,0.00,CLR,,0.00,0.0,WeatherDisplay:10.37,2013-07-04 19:50:00,
2013-07-04 21:55:00,73.2,46.8,30.00,NNW,338,3.1,3.1,39,0.00,CLR,,0.00,0.0,WeatherDisplay:10.37,2013-07-04 19:55:00,
2013-07-04 22:00:00,73.4,46.9,30.00,WNW,292,2.3,2.3,39,0.00,CLR,,0.00,0.0,WeatherDisplay:10.37,2013-07-04 20:00:00,
2013-07-04 22:05:00,73.6,47.8,30.00,WNW,292,3.8,3.8,40,0.00,CLR,,0.00,0.0,WeatherDisplay:10.37,2013-07-04 20:05:00,
2013-07-04 22:10:00,73.6,47.8,30.00,NNW,338,3.8,3.8,40,0.00,CLR,,0.00,0.0,WeatherDisplay:10.37,2013-07-04 20:10:00,
2013-07-04 22:16:00,73.8,48.6,30.00,NW,315,2.3,2.3,41,0.00,CLR,,0.00,0.0,WeatherDisplay:10.37,2013-07-04 20:16:00,
2013-07-04 22:21:00,73.9,49.4,30.00,NNW,338,3.5,3.5,42,0.00,CLR,,0.00,0.0,WeatherDisplay:10.37,2013-07-04 20:21:00,
2013-07-04 22:26:00,74.1,50.2,30.00,NNW,338,3.5,3.5,43,0.00,CLR,,0.00,0.0,WeatherDisplay:10.37,2013-07-04 20:26:00,
2013-07-04 22:31:00,74.3,50.4,30.00,NNW,338,3.5,3.5,43,0.00,CLR,,0.00,0.0,WeatherDisplay:10.37,2013-07-04 20:31:00,
2013-07-04 22:36:00,74.5,50.5,30.00,West,270,4.6,4.6,43,0.00,CLR,,0.00,0.0,WeatherDisplay:10.37,2013-07-04 20:36:00,
2013-07-04 22:41:00,74.5,50.5,30.00,NNW,338,3.1,3.1,43,0.00,CLR,,0.00,0.0,WeatherDisplay:10.37,2013-07-04 20:41:00,
2013-07-04 22:46:00,74.5,51.1,30.00,WNW,292,4.6,4.6,44,0.00,CLR,,0.00,0.0,WeatherDisplay:10.37,2013-07-04 20:46:00,
2013-07-04 22:51:00,74.5,49.9,30.00,NW,315,3.5,3.5,42,0.00,CLR,,0.00,0.0,WeatherDisplay:10.37,2013-07-04 20:51:00,
2013-07-04 22:56:00,74.7,51.3,30.00,NW,315,4.6,4.6,44,0.00,CLR,,0.00,0.0,WeatherDisplay:10.37,2013-07-04 20:56:00,
2013-07-04 23:02:00,74.7,51.3,30.00,NNW,338,4.6,4.6,44,0.00,CLR,,0.00,0.0,WeatherDisplay:10.37,2013-07-04 21:02:00,
2013-07-04 23:07:00,74.8,52.1,30.00,NNW,338,4.6,4.6,45,0.00,CLR,,0.00,0.0,WeatherDisplay:10.37,2013-07-04 21:07:00,
2013-07-04 23:12:00,74.7,51.9,30.03,NW,315,6.4,6.4,45,0.00,CLR,,0.00,0.0,WeatherDisplay:10.37,2013-07-04 21:12:00,
2013-07-04 23:17:00,74.7,51.9,30.03,NW,315,4.6,4.6,45,0.00,CLR,,0.00,0.0,WeatherDisplay:10.37,2013-07-04 21:17:00,
2013-07-04 23:22:00,74.7,51.9,30.03,NW,315,5.8,5.8,45,0.00,CLR,,0.00,0.0,WeatherDisplay:10.37,2013-07-04 21:22:00,
2013-07-04 23:27:00,74.7,52.5,30.00,NNW,338,5.8,5.8,46,0.00,CLR,,0.00,0.0,WeatherDisplay:10.37,2013-07-04 21:27:00,
2013-07-04 23:33:00,74.5,52.3,30.00,WSW,248,4.6,4.6,46,0.00,CLR,,0.00,0.0,WeatherDisplay:10.37,2013-07-04 21:33:00,
2013-07-04 23:38:00,74.5,52.3,30.00,NNW,338,5.8,5.8,46,0.00,CLR,,0.00,0.0,WeatherDisplay:10.37,2013-07-04 21:38:00,
2013-07-04 23:43:00,74.3,52.8,30.00,NNW,338,3.5,3.5,47,0.00,CLR,,0.00,0.0,WeatherDisplay:10.37,2013-07-04 21:43:00,
2013-07-04 23:48:00,74.1,52.6,30.00,NNW,338,4.6,4.6,47,0.00,CLR,,0.00,0.0,WeatherDisplay:10.37,2013-07-04 21:48:00,
2013-07-04 23:53:00,74.1,52.6,30.00,WNW,292,4.6,4.6,47,0.00,CLR,,0.00,0.0,WeatherDisplay:10.37,2013-07-04 21:53:00,
2013-07-04 23:58:00,73.9,53.0,30.00,NNE,22,4.6,4.6,48,0.00,CLR,,0.00,0.0,WeatherDisplay:10.37,2013-07-04 21:58:00,